Location: Bowden
(51.9167°N, 114.0333°W)
Time: 09:52:08
(UTC+00:00)

Envisat - Pass Details

Date: 13 December 2021
Orbit: 764 x 766 km, 98.2° (Epoch: 28 January)

Event Time Altitude Azimuth Distance (km) Brightness Sun altitude
Rises 01:14:15 0° 219° (SW) 3,225 7.2 -15.7°
Reaches altitude 10° 01:17:46 10° 245° (WSW) 2,305 6.8 -16.2°
Maximum altitude 01:20:19 14° 275° (W) 2,056 6.2 -16.6°
Drops below altitude 10° 01:22:53 10° 306° (NW) 2,314 6.0 -16.9°
Sets 01:26:26 0° 331° (NNW) 3,247 6.4 -17.5°
